OEO584 LZIB-LGTS

Flight info

Callsign OEO584
Flight time 1h 33m
Altitude 35000
Route VAMOG DCT SIRDU DCT BABIT DCT RISTU DCT IBISI DCT KRATO DCT ERANA T389 ALIKO
Aircraft A321/M-SDE3FGHIRWY/LB1

Departure

Time 2026-05-06 19:46
Airport M. R. Štefánik Airport (LZIB)

Arrival

Time 2026-05-06 21:20
Airport Thessaloniki Macedonia International Airport (LGTS)
Time Latitude Longitude Altitude Speed Heading
2026-05-06 18:45 48.16756 17.19914 446 ft 0 kts 270°
2026-05-06 19:39 48.16756 17.19907 446 ft 0 kts 270°
2026-05-06 19:39 48.16743 17.19855 447 ft 9 kts 213°
2026-05-06 19:39 48.16679 17.19856 437 ft 11 kts 136°
2026-05-06 19:40 48.16672 17.19978 444 ft 13 kts 88°
2026-05-06 19:40 48.16673 17.20125 442 ft 15 kts 89°
2026-05-06 19:40 48.16675 17.20291 440 ft 17 kts 85°
2026-05-06 19:40 48.16741 17.20418 437 ft 13 kts 39°
2026-05-06 19:41 48.16813 17.20524 432 ft 16 kts 45°
2026-05-06 19:41 48.16895 17.20649 431 ft 18 kts 45°
2026-05-06 19:41 48.16981 17.20786 431 ft 7 kts 47°
2026-05-06 19:41 48.16986 17.20793 428 ft 4 kts 47°
2026-05-06 19:42 48.17011 17.20831 435 ft 6 kts 38°
2026-05-06 19:42 48.17055 17.20820 423 ft 8 kts 316°
2026-05-06 19:42 48.17106 17.20745 436 ft 12 kts 315°
2026-05-06 19:42 48.17173 17.20641 436 ft 15 kts 313°
2026-05-06 19:43 48.17249 17.20524 434 ft 18 kts 313°
2026-05-06 19:43 48.17306 17.20435 440 ft 1 kts 314°
2026-05-06 19:43 48.17317 17.20417 434 ft 3 kts 314°
2026-05-06 19:43 48.17337 17.20386 432 ft 5 kts 314°
2026-05-06 19:44 48.17368 17.20342 435 ft 7 kts 327°
2026-05-06 19:44 48.17418 17.20306 435 ft 9 kts 356°
2026-05-06 19:44 48.17487 17.20321 435 ft 11 kts 26°
2026-05-06 19:44 48.17541 17.20394 428 ft 3 kts 50°
2026-05-06 19:45 48.17543 17.20441 436 ft 7 kts 127°
2026-05-06 19:45 48.17532 17.20457 433 ft 0 kts 135°
2026-05-06 19:45 48.17358 17.20720 430 ft 72 kts 134°
2026-05-06 19:46 48.16852 17.21502 433 ft 134 kts 133°
2026-05-06 19:46 48.16100 17.22696 549 ft 171 kts 135°
2026-05-06 19:46 48.15350 17.24027 1360 ft 163 kts 140°
2026-05-06 19:46 48.14512 17.25110 2196 ft 156 kts 150°
2026-05-06 19:47 48.13740 17.26271 2730 ft 163 kts 138°
2026-05-06 19:47 48.12996 17.27564 3118 ft 163 kts 147°
2026-05-06 19:47 48.12182 17.28757 3515 ft 167 kts 144°
2026-05-06 19:47 48.11348 17.30010 3837 ft 175 kts 147°
2026-05-06 19:48 48.10442 17.31327 4131 ft 188 kts 142°
2026-05-06 19:48 48.09525 17.32739 4500 ft 194 kts 144°
2026-05-06 19:48 48.08564 17.34262 4818 ft 207 kts 138°
2026-05-06 19:48 48.07565 17.35890 5137 ft 217 kts 142°
2026-05-06 19:49 48.06469 17.37555 5378 ft 234 kts 142°
2026-05-06 19:49 48.05283 17.39367 5672 ft 253 kts 141°
2026-05-06 19:49 48.04014 17.41313 5995 ft 268 kts 141°
2026-05-06 19:49 48.02708 17.43328 6303 ft 270 kts 141°
2026-05-06 19:50 48.01401 17.45345 6589 ft 271 kts 141°
2026-05-06 19:50 48.00083 17.47374 6998 ft 273 kts 141°
2026-05-06 19:50 47.98747 17.49420 7631 ft 277 kts 141°
2026-05-06 19:50 47.97398 17.51486 8301 ft 279 kts 140°
2026-05-06 19:51 47.96042 17.53563 8979 ft 281 kts 140°
2026-05-06 19:51 47.94669 17.55662 9617 ft 284 kts 140°
2026-05-06 19:51 47.93274 17.57792 10064 ft 293 kts 140°
2026-05-06 19:51 47.91804 17.60028 10333 ft 309 kts 140°
2026-05-06 19:52 47.90136 17.62123 10550 ft 319 kts 152°
2026-05-06 19:52 47.88100 17.63507 10755 ft 327 kts 168°
2026-05-06 19:52 47.85842 17.64242 11022 ft 338 kts 173°
2026-05-06 19:52 47.83506 17.64890 11488 ft 343 kts 173°
2026-05-06 19:53 47.81213 17.65521 12030 ft 345 kts 174°
2026-05-06 19:53 47.78832 17.66052 12586 ft 348 kts 174°
2026-05-06 19:53 47.76424 17.66631 13133 ft 352 kts 172°
2026-05-06 19:53 47.74107 17.67752 13657 ft 360 kts 158°
2026-05-06 19:54 47.71887 17.69531 14151 ft 365 kts 154°
2026-05-06 19:54 47.69686 17.71428 14632 ft 368 kts 154°
2026-05-06 19:54 47.67455 17.73347 15092 ft 371 kts 154°
2026-05-06 19:54 47.65209 17.75253 15549 ft 374 kts 154°
2026-05-06 19:55 47.62941 17.77161 16005 ft 377 kts 154°
2026-05-06 19:55 47.60643 17.79077 16453 ft 380 kts 154°
2026-05-06 19:55 47.58331 17.81001 16890 ft 383 kts 154°
2026-05-06 19:55 47.56002 17.82941 17338 ft 386 kts 154°
2026-05-06 19:56 47.53648 17.84901 17770 ft 389 kts 154°
2026-05-06 19:56 47.51301 17.86856 18188 ft 393 kts 154°
2026-05-06 19:56 47.48914 17.88837 18553 ft 396 kts 154°
2026-05-06 19:56 47.46504 17.90835 18930 ft 398 kts 154°
2026-05-06 19:57 47.44077 17.92840 19320 ft 400 kts 154°
2026-05-06 19:57 47.41635 17.94855 19700 ft 403 kts 154°
2026-05-06 19:57 47.39184 17.96880 20092 ft 405 kts 154°
2026-05-06 19:57 47.36721 17.98912 20485 ft 407 kts 154°
2026-05-06 19:58 47.34234 18.00961 20852 ft 409 kts 154°
2026-05-06 19:58 47.31738 18.03012 21214 ft 411 kts 154°
2026-05-06 19:58 47.29236 18.05068 21565 ft 414 kts 154°
2026-05-06 19:58 47.26713 18.07141 21926 ft 416 kts 154°
2026-05-06 19:59 47.24203 18.09204 22261 ft 418 kts 154°
2026-05-06 19:59 47.21659 18.11291 22606 ft 420 kts 154°
2026-05-06 19:59 47.19094 18.13392 22945 ft 422 kts 154°
2026-05-06 19:59 47.16522 18.15501 23269 ft 424 kts 154°
2026-05-06 20:00 47.13938 18.17615 23566 ft 426 kts 154°
2026-05-06 20:00 47.11333 18.19743 23813 ft 428 kts 154°
2026-05-06 20:00 47.08730 18.21868 24038 ft 430 kts 154°
2026-05-06 20:00 47.06101 18.24009 24240 ft 431 kts 154°
2026-05-06 20:01 47.03474 18.26145 24409 ft 433 kts 154°
2026-05-06 20:01 47.00833 18.28285 24533 ft 434 kts 154°
2026-05-06 20:01 46.98247 18.30385 24646 ft 435 kts 154°
2026-05-06 20:01 46.95595 18.32535 24809 ft 437 kts 154°
2026-05-06 20:02 46.92914 18.34709 25069 ft 439 kts 154°
2026-05-06 20:02 46.90238 18.36874 25298 ft 441 kts 154°
2026-05-06 20:02 46.87547 18.39051 25533 ft 443 kts 154°
2026-05-06 20:02 46.84837 18.41235 25776 ft 445 kts 154°
2026-05-06 20:03 46.82188 18.43367 26001 ft 447 kts 154°
2026-05-06 20:03 46.79465 18.45561 26216 ft 449 kts 154°
2026-05-06 20:03 46.76717 18.47772 26455 ft 450 kts 154°
2026-05-06 20:03 46.73975 18.49974 26686 ft 452 kts 154°
2026-05-06 20:04 46.71211 18.52184 26907 ft 454 kts 154°
2026-05-06 20:04 46.68469 18.54372 27131 ft 455 kts 154°
2026-05-06 20:04 46.65683 18.56594 27355 ft 457 kts 154°
2026-05-06 20:04 46.62853 18.58857 27570 ft 459 kts 154°
2026-05-06 20:05 46.60079 18.61080 27772 ft 461 kts 154°
2026-05-06 20:05 46.57269 18.63328 27970 ft 463 kts 154°
2026-05-06 20:05 46.54442 18.65580 28219 ft 463 kts 154°
2026-05-06 20:05 46.51614 18.67829 28484 ft 463 kts 154°
2026-05-06 20:06 46.48788 18.70074 28754 ft 463 kts 154°
2026-05-06 20:06 46.45960 18.72314 29027 ft 463 kts 154°
2026-05-06 20:06 46.43134 18.74555 29292 ft 462 kts 154°
2026-05-06 20:06 46.40316 18.76790 29575 ft 462 kts 155°
2026-05-06 20:07 46.37498 18.79017 29843 ft 461 kts 155°
2026-05-06 20:07 46.34674 18.81247 30086 ft 461 kts 155°
2026-05-06 20:07 46.31855 18.83469 30322 ft 460 kts 155°
2026-05-06 20:07 46.29052 18.85680 30568 ft 459 kts 155°
2026-05-06 20:08 46.26249 18.87886 30802 ft 458 kts 155°
2026-05-06 20:08 46.23445 18.90089 31032 ft 457 kts 155°
2026-05-06 20:08 46.20649 18.92284 31272 ft 457 kts 155°
2026-05-06 20:08 46.17864 18.94469 31502 ft 456 kts 155°
2026-05-06 20:09 46.15074 18.96653 31742 ft 455 kts 155°
2026-05-06 20:09 46.12334 18.98798 31974 ft 454 kts 155°
2026-05-06 20:09 46.09528 19.00990 32197 ft 453 kts 155°
2026-05-06 20:09 46.06797 19.03123 32420 ft 452 kts 155°
2026-05-06 20:10 46.04030 19.05278 32647 ft 451 kts 155°
2026-05-06 20:10 46.01269 19.07430 32871 ft 451 kts 155°
2026-05-06 20:10 45.98509 19.09575 33087 ft 450 kts 155°
2026-05-06 20:10 45.96648 19.11020 33227 ft 449 kts 155°
2026-05-06 20:11 45.93004 19.13851 33474 ft 449 kts 155°
2026-05-06 20:11 45.90257 19.15978 33650 ft 449 kts 155°
2026-05-06 20:11 45.87501 19.18111 33838 ft 449 kts 155°
2026-05-06 20:11 45.84751 19.20224 33997 ft 449 kts 155°
2026-05-06 20:12 45.81996 19.22339 34132 ft 449 kts 155°
2026-05-06 20:12 45.80176 19.23742 34212 ft 449 kts 155°
2026-05-06 20:12 45.77422 19.25865 34355 ft 449 kts 155°
2026-05-06 20:12 45.74672 19.27988 34499 ft 449 kts 155°
2026-05-06 20:13 45.71990 19.30056 34617 ft 449 kts 155°
2026-05-06 20:13 45.69228 19.32185 34753 ft 450 kts 155°
2026-05-06 20:13 45.66477 19.34306 34883 ft 449 kts 155°
2026-05-06 20:13 45.63724 19.36419 34959 ft 450 kts 155°
2026-05-06 20:14 45.58210 19.40649 34927 ft 450 kts 155°
2026-05-06 20:14 45.52681 19.44864 34904 ft 451 kts 155°
2026-05-06 20:15 45.47137 19.49088 34908 ft 452 kts 156°
2026-05-06 20:15 45.41594 19.53305 34909 ft 452 kts 156°
2026-05-06 20:16 45.36031 19.57534 34904 ft 453 kts 156°
2026-05-06 20:16 45.30452 19.61752 34907 ft 454 kts 156°
2026-05-06 20:17 45.24879 19.65963 34909 ft 454 kts 156°
2026-05-06 20:17 45.19326 19.70144 34905 ft 455 kts 157°
2026-05-06 20:18 45.13727 19.74355 34906 ft 457 kts 157°
2026-05-06 20:18 45.08099 19.78574 34908 ft 458 kts 157°
2026-05-06 20:19 45.02451 19.82805 34905 ft 460 kts 158°
2026-05-06 20:19 44.96787 19.87037 34904 ft 460 kts 158°
2026-05-06 20:20 44.91115 19.91259 34912 ft 461 kts 158°
2026-05-06 20:20 44.85434 19.95464 34898 ft 461 kts 158°
2026-05-06 20:21 44.79749 19.99669 34908 ft 462 kts 158°
2026-05-06 20:21 44.75047 20.03266 34920 ft 466 kts 153°
2026-05-06 20:22 44.63163 20.13856 34925 ft 459 kts 161°
2026-05-06 20:23 44.57419 20.17494 34921 ft 459 kts 161°
2026-05-06 20:23 44.51595 20.21202 34923 ft 460 kts 161°
2026-05-06 20:24 44.45777 20.24934 34926 ft 460 kts 161°
2026-05-06 20:24 44.39951 20.28665 34931 ft 460 kts 160°
2026-05-06 20:25 44.34125 20.32391 34932 ft 460 kts 160°
2026-05-06 20:25 44.28253 20.35961 34934 ft 460 kts 162°
2026-05-06 20:26 44.22364 20.39494 34937 ft 462 kts 160°
2026-05-06 20:26 44.16555 20.43205 34942 ft 463 kts 158°
2026-05-06 20:27 44.10773 20.47158 34943 ft 461 kts 159°
2026-05-06 20:27 44.04953 20.50906 34953 ft 461 kts 160°
2026-05-06 20:28 43.99105 20.54582 34958 ft 461 kts 160°
2026-05-06 20:28 43.93251 20.58261 34961 ft 462 kts 160°
2026-05-06 20:29 43.87432 20.61911 34962 ft 462 kts 160°
2026-05-06 20:29 43.81566 20.65588 34965 ft 463 kts 160°
2026-05-06 20:30 43.72757 20.71093 34962 ft 464 kts 160°
2026-05-06 20:31 43.66862 20.74762 34966 ft 465 kts 160°
2026-05-06 20:31 43.63327 20.76963 34968 ft 465 kts 160°
2026-05-06 20:32 43.60046 20.79037 34792 ft 450 kts 158°
2026-05-06 20:32 43.57295 20.81043 34361 ft 446 kts 153°
2026-05-06 20:32 43.54657 20.83260 33896 ft 441 kts 153°
2026-05-06 20:32 43.53688 20.84084 33693 ft 440 kts 152°
2026-05-06 20:33 44.61945 20.14636 34919 ft 459 kts 161°
2026-05-06 20:35 44.61814 20.14720 34927 ft 459 kts 161°
2026-05-06 20:35 44.61937 20.14641 35100 ft 459 kts 161°
2026-05-06 20:36 44.57435 20.17444 35223 ft 435 kts 163°
2026-05-06 20:36 44.54648 20.19032 35094 ft 440 kts 163°
2026-05-06 20:37 44.51768 20.20722 34996 ft 447 kts 162°
2026-05-06 20:37 44.46061 20.24304 34940 ft 457 kts 160°
2026-05-06 20:38 44.40266 20.28042 34936 ft 459 kts 160°
2026-05-06 20:38 44.34464 20.31776 34934 ft 460 kts 160°
2026-05-06 20:39 44.28646 20.35498 34934 ft 460 kts 160°
2026-05-06 20:39 44.22823 20.39218 34940 ft 460 kts 160°
2026-05-06 20:40 44.17044 20.42905 34939 ft 459 kts 160°
2026-05-06 20:40 44.11225 20.46601 34953 ft 460 kts 160°
2026-05-06 20:41 44.05390 20.50309 34967 ft 461 kts 160°
2026-05-06 20:41 43.99553 20.53994 34980 ft 461 kts 160°
2026-05-06 20:42 43.93709 20.57674 34988 ft 462 kts 160°
2026-05-06 20:42 43.87855 20.61361 34994 ft 462 kts 160°
2026-05-06 20:43 43.83051 20.64384 34994 ft 463 kts 160°
2026-05-06 20:43 43.77171 20.68080 34993 ft 464 kts 160°
2026-05-06 20:44 43.73309 20.70502 34990 ft 465 kts 160°
2026-05-06 20:44 43.69201 20.73090 35093 ft 435 kts 160°
2026-05-06 20:44 43.66497 20.74835 34667 ft 427 kts 159°
2026-05-06 20:45 43.63871 20.76659 34116 ft 425 kts 155°
2026-05-06 20:45 43.61302 20.78677 33526 ft 423 kts 153°
2026-05-06 20:45 43.58802 20.80896 32554 ft 432 kts 148°
2026-05-06 20:45 43.56604 20.83285 31621 ft 440 kts 142°
2026-05-06 20:46 43.54367 20.86274 30483 ft 454 kts 134°
2026-05-06 20:46 43.52352 20.89683 29355 ft 464 kts 130°
2026-05-06 20:46 43.50391 20.93236 28573 ft 464 kts 128°
2026-05-06 20:46 43.48603 20.96906 28011 ft 459 kts 121°
2026-05-06 20:47 43.46991 21.00700 27735 ft 460 kts 120°
2026-05-06 20:47 43.45424 21.04538 27765 ft 461 kts 121°
2026-05-06 20:47 43.43771 21.08315 27222 ft 462 kts 123°
2026-05-06 20:47 43.42054 21.12057 26974 ft 462 kts 124°
2026-05-06 20:48 43.40164 21.15615 26926 ft 460 kts 134°
2026-05-06 20:48 43.37789 21.18534 26952 ft 457 kts 147°
2026-05-06 20:48 43.35037 21.20674 26975 ft 453 kts 159°
2026-05-06 20:48 43.32089 21.22138 26986 ft 450 kts 168°
2026-05-06 20:49 43.29026 21.23010 26997 ft 448 kts 174°
2026-05-06 20:49 43.25940 21.23553 27000 ft 447 kts 177°
2026-05-06 20:49 43.22830 21.23832 26999 ft 446 kts 181°
2026-05-06 20:49 43.19767 21.23893 27007 ft 445 kts 183°
2026-05-06 20:50 43.16673 21.23893 27008 ft 445 kts 183°
2026-05-06 20:50 43.13571 21.23875 27010 ft 445 kts 183°
2026-05-06 20:50 43.10473 21.23853 27017 ft 445 kts 183°
2026-05-06 20:50 43.07376 21.23829 27016 ft 446 kts 183°
2026-05-06 20:51 43.04272 21.23808 27026 ft 445 kts 183°
2026-05-06 20:51 43.01190 21.23789 27021 ft 445 kts 183°
2026-05-06 20:51 42.98081 21.23767 27018 ft 445 kts 183°
2026-05-06 20:51 42.94982 21.23743 27024 ft 446 kts 183°
2026-05-06 20:52 42.91868 21.23835 27023 ft 446 kts 181°
2026-05-06 20:52 42.88776 21.23819 27026 ft 447 kts 181°
2026-05-06 20:52 42.85700 21.24502 27032 ft 452 kts 165°
2026-05-06 20:52 42.82753 21.26080 27056 ft 455 kts 158°
2026-05-06 20:53 42.79883 21.27898 27060 ft 455 kts 157°
2026-05-06 20:53 42.77013 21.29724 27062 ft 455 kts 157°
2026-05-06 20:53 42.74109 21.31516 27059 ft 460 kts 158°
2026-05-06 20:53 42.71214 21.33269 27061 ft 461 kts 158°
2026-05-06 20:54 42.68287 21.35028 27055 ft 461 kts 158°
2026-05-06 20:54 42.65355 21.36785 27057 ft 461 kts 158°
2026-05-06 20:54 42.62421 21.38543 27055 ft 461 kts 158°
2026-05-06 20:54 42.59489 21.40299 27054 ft 460 kts 158°
2026-05-06 20:55 42.56552 21.42054 27048 ft 461 kts 158°
2026-05-06 20:55 42.53612 21.43811 27049 ft 461 kts 158°
2026-05-06 20:55 42.50675 21.45563 27044 ft 461 kts 158°
2026-05-06 20:55 42.47735 21.47318 27047 ft 461 kts 158°
2026-05-06 20:56 42.44798 21.49072 27042 ft 460 kts 158°
2026-05-06 20:56 42.41871 21.50815 27032 ft 459 kts 158°
2026-05-06 20:56 42.38943 21.52555 27035 ft 460 kts 158°
2026-05-06 20:56 42.36049 21.54275 27042 ft 460 kts 158°
2026-05-06 20:57 42.33112 21.56019 27033 ft 460 kts 158°
2026-05-06 20:57 42.30161 21.57765 27035 ft 467 kts 158°
2026-05-06 20:57 42.27177 21.59532 27033 ft 468 kts 158°
2026-05-06 20:57 42.24199 21.61296 27033 ft 467 kts 158°
2026-05-06 20:58 42.21229 21.63052 27029 ft 467 kts 158°
2026-05-06 20:58 42.18244 21.64815 27027 ft 467 kts 158°
2026-05-06 20:58 42.15268 21.66569 27029 ft 467 kts 158°
2026-05-06 20:58 42.12287 21.68326 27023 ft 468 kts 158°
2026-05-06 20:59 42.09302 21.70082 27023 ft 468 kts 158°
2026-05-06 20:59 42.06327 21.71830 27021 ft 468 kts 158°
2026-05-06 20:59 42.03345 21.73584 27021 ft 467 kts 158°
2026-05-06 20:59 42.00364 21.75342 27025 ft 467 kts 158°
2026-05-06 21:00 41.97396 21.77087 27023 ft 467 kts 159°
2026-05-06 21:00 41.94416 21.78833 27024 ft 467 kts 158°
2026-05-06 21:00 41.91434 21.80578 27023 ft 467 kts 159°
2026-05-06 21:00 41.88460 21.82316 27022 ft 467 kts 159°
2026-05-06 21:01 41.85473 21.84059 27020 ft 467 kts 159°
2026-05-06 21:01 41.82488 21.85800 27018 ft 467 kts 159°
2026-05-06 21:01 41.79507 21.87539 27019 ft 467 kts 159°
2026-05-06 21:01 41.76531 21.89270 27020 ft 467 kts 159°
2026-05-06 21:02 41.73593 21.90980 26743 ft 466 kts 159°
2026-05-06 21:02 41.70620 21.92707 26457 ft 466 kts 159°
2026-05-06 21:02 41.67661 21.94427 26050 ft 462 kts 159°
2026-05-06 21:02 41.64714 21.96136 25495 ft 459 kts 159°
2026-05-06 21:03 41.61797 21.97825 24898 ft 457 kts 159°
2026-05-06 21:03 41.58876 21.99512 24279 ft 456 kts 159°
2026-05-06 21:03 41.55965 22.01193 23668 ft 454 kts 159°
2026-05-06 21:03 41.53074 22.02864 22968 ft 451 kts 159°
2026-05-06 21:04 41.50306 22.04462 22394 ft 445 kts 159°
2026-05-06 21:04 41.47479 22.06094 21738 ft 442 kts 159°
2026-05-06 21:04 41.44708 22.07691 21115 ft 438 kts 159°
2026-05-06 21:04 41.41917 22.09294 20510 ft 434 kts 159°
2026-05-06 21:05 41.39152 22.10882 19933 ft 431 kts 159°
2026-05-06 21:05 41.36413 22.12456 19359 ft 427 kts 159°
2026-05-06 21:05 41.33700 22.14013 18783 ft 424 kts 159°
2026-05-06 21:05 41.30998 22.15561 18188 ft 420 kts 159°
2026-05-06 21:06 41.28325 22.17096 17562 ft 416 kts 159°
2026-05-06 21:06 41.25677 22.18615 16975 ft 411 kts 159°
2026-05-06 21:06 41.23060 22.20112 16393 ft 406 kts 159°
2026-05-06 21:06 41.20480 22.21586 15874 ft 401 kts 159°
2026-05-06 21:07 41.17966 22.23021 15360 ft 395 kts 159°
2026-05-06 21:07 41.15509 22.24595 14829 ft 392 kts 152°
2026-05-06 21:07 41.13173 22.26447 14293 ft 388 kts 150°
2026-05-06 21:07 41.10881 22.28300 13761 ft 384 kts 150°
2026-05-06 21:08 41.08610 22.30130 13180 ft 380 kts 150°
2026-05-06 21:08 41.06355 22.31942 12633 ft 376 kts 150°
2026-05-06 21:08 41.04122 22.33729 12102 ft 371 kts 150°
2026-05-06 21:08 41.02044 22.35388 11587 ft 368 kts 150°
2026-05-06 21:09 40.99896 22.37102 11228 ft 358 kts 150°
2026-05-06 21:09 40.97801 22.38773 10953 ft 343 kts 150°
2026-05-06 21:09 40.95807 22.40363 10720 ft 327 kts 150°
2026-05-06 21:09 40.93900 22.41881 10479 ft 313 kts 150°
2026-05-06 21:10 40.92079 22.43332 10251 ft 299 kts 150°
2026-05-06 21:10 40.90319 22.44732 9884 ft 292 kts 150°
2026-05-06 21:10 40.88592 22.46106 9420 ft 287 kts 150°
2026-05-06 21:10 40.86891 22.47457 8970 ft 284 kts 150°
2026-05-06 21:11 40.85209 22.48792 8533 ft 280 kts 150°
2026-05-06 21:11 40.83544 22.50112 8126 ft 276 kts 150°
2026-05-06 21:11 40.81906 22.51411 7776 ft 274 kts 150°
2026-05-06 21:11 40.80274 22.52705 7430 ft 273 kts 150°
2026-05-06 21:12 40.78643 22.53996 7062 ft 273 kts 150°
2026-05-06 21:12 40.77033 22.55271 6687 ft 274 kts 150°
2026-05-06 21:12 40.75378 22.56579 6309 ft 274 kts 150°
2026-05-06 21:12 40.73764 22.57856 5921 ft 274 kts 150°
2026-05-06 21:13 40.72107 22.59165 5543 ft 274 kts 150°
2026-05-06 21:13 40.70495 22.60438 5183 ft 273 kts 150°
2026-05-06 21:13 40.68866 22.61725 4823 ft 271 kts 150°
2026-05-06 21:13 40.67247 22.63003 4438 ft 270 kts 150°
2026-05-06 21:14 40.65646 22.64267 4078 ft 268 kts 150°
2026-05-06 21:14 40.64073 22.65521 3879 ft 259 kts 149°
2026-05-06 21:14 40.62561 22.66728 3737 ft 248 kts 150°
2026-05-06 21:14 40.61118 22.67874 3618 ft 236 kts 150°
2026-05-06 21:15 40.59754 22.68953 3458 ft 227 kts 150°
2026-05-06 21:15 40.58418 22.70007 3190 ft 223 kts 150°
2026-05-06 21:15 40.57185 22.71233 2853 ft 222 kts 131°
2026-05-06 21:15 40.56425 22.73000 2513 ft 223 kts 112°
2026-05-06 21:16 40.56006 22.74958 2196 ft 222 kts 104°
2026-05-06 21:16 40.55702 22.76908 2009 ft 213 kts 103°
2026-05-06 21:16 40.55413 22.78722 2003 ft 190 kts 104°
2026-05-06 21:16 40.55128 22.80344 1994 ft 175 kts 105°
2026-05-06 21:17 40.54853 22.81822 1970 ft 162 kts 106°
2026-05-06 21:17 40.54584 22.83253 1837 ft 161 kts 106°
2026-05-06 21:17 40.54319 22.84660 1657 ft 153 kts 106°
2026-05-06 21:17 40.54067 22.85998 1457 ft 150 kts 106°
2026-05-06 21:18 40.53816 22.87326 1249 ft 149 kts 105°
2026-05-06 21:18 40.53567 22.88644 1037 ft 147 kts 105°
2026-05-06 21:18 40.53323 22.89941 807 ft 146 kts 100°
2026-05-06 21:18 40.53078 22.91225 628 ft 143 kts 103°
2026-05-06 21:19 40.52865 22.92488 443 ft 142 kts 102°
2026-05-06 21:19 40.52600 22.93733 246 ft 145 kts 105°
2026-05-06 21:19 40.52366 22.95027 87 ft 146 kts 103°
2026-05-06 21:19 40.52150 22.96236 37 ft 116 kts 103°
2026-05-06 21:20 40.52000 22.96966 32 ft 48 kts 104°
2026-05-06 21:20 40.51910 22.97404 33 ft 50 kts 105°
2026-05-06 21:20 40.51825 22.97822 34 ft 43 kts 92°
2026-05-06 21:20 40.51822 22.97937 34 ft 5 kts 105°
2026-05-06 21:21 40.51809 22.98000 34 ft 9 kts 104°
2026-05-06 21:21 40.51791 22.98094 34 ft 12 kts 104°
2026-05-06 21:21 40.51766 22.98218 34 ft 16 kts 104°
2026-05-06 21:21 40.51736 22.98371 34 ft 19 kts 104°
2026-05-06 21:22 40.51708 22.98513 33 ft 10 kts 104°
2026-05-06 21:22 40.51690 22.98623 34 ft 14 kts 88°
2026-05-06 21:22 40.51749 22.98692 34 ft 4 kts 12°
2026-05-06 21:22 40.51789 22.98704 34 ft 8 kts 12°
2026-05-06 21:23 40.51843 22.98678 34 ft 11 kts 297°
2026-05-06 21:23 40.51863 22.98573 34 ft 10 kts 283°
2026-05-06 21:23 40.51879 22.98486 34 ft 5 kts 284°
2026-05-06 21:23 40.51889 22.98434 34 ft 7 kts 284°
2026-05-06 21:24 40.51903 22.98364 34 ft 9 kts 285°
2026-05-06 21:24 40.51942 22.98316 34 ft 8 kts 358°
2026-05-06 21:24 40.52001 22.98332 34 ft 8 kts 14°
2026-05-06 21:24 40.52042 22.98346 34 ft 6 kts 15°
2026-05-06 21:25 40.52073 22.98356 34 ft 2 kts 14°
2026-05-06 21:25 40.52095 22.98364 34 ft 4 kts 14°
2026-05-06 21:25 40.52108 22.98368 34 ft 0 kts 14°